Probability
18 19 20 20 17 14 12 11 8 5 5 6 5 3 2 1 0 0 1 2 3 4 3 3 3 1 0 0 0 0 0 0 0 0 0 0 0 0 0 0 0 0 0
21 22 23 22 22 19 16 13 10 7 7 8 8 6 4 3 1 0 0 1 3 5 5 4 3 2 0 0 0 0 0 0 0 0 0 0 0 0 0 0 0 0 0
24 25 25 25 25 24 19 15 11 10 10 10 9 8 7 5 2 0 0 1 3 5 5 4 3 1 0 0 0 0 0 0 0 0 0 0 0 0 0 0 0 0 0
26 26 27 27 26 25 21 16 13 12 12 10 9 8 8 6 3 1 0 0 2 3 4 4 3 2 1 1 1 0 0 0 0 0 0 0 0 0 0 0 0 0 0
30 29 30 29 27 27 26 22 17 14 14 11 8 7 7 6 4 1 0 1 2 2 3 5 5 5 4 3 2 1 0 0 0 0 0 0 0 0 0 0 0 0 0
33 33 34 33 31 33 34 30 23 19 16 14 10 9 9 8 6 4 3 3 4 3 4 6 7 8 9 7 3 1 0 0 0 0 0 0 0 0 0 0 0 0 0
32 33 34 35 36 38 40 37 31 25 21 17 14 13 12 11 9 7 7 7 6 5 5 7 9 11 12 10 5 2 2 2 2 1 1 0 0 0 0 0 0 0 0
28 29 30 32 36 41 43 42 37 31 26 21 17 16 16 14 10 8 9 9 8 8 8 11 13 14 14 12 8 5 4 4 4 3 2 1 0 0 0 0 0 0 0
25 28 28 30 36 42 43 43 41 36 31 26 21 18 17 15 12 9 9 10 10 10 12 15 16 15 14 13 11 9 7 7 6 4 2 1 0 0 0 1 1 1 1
25 29 32 34 39 43 46 45 43 39 35 30 23 18 16 14 12 11 11 12 12 14 17 18 17 15 13 13 13 11 9 8 7 5 3 1 1 1 1 2 3 3 3
27 31 37 41 44 47 48 47 42 38 35 31 25 20 17 13 11 11 13 14 16 19 22 22 18 15 14 15 15 12 9 8 7 6 4 3 2 2 2 2 3 3 3
29 32 39 46 49 50 49 47 40 36 34 33 29 25 21 17 14 13 13 16 19 22 24 24 21 18 17 19 18 15 11 9 8 6 5 4 3 3 2 1 1 1 1
30 34 41 47 51 51 51 48 42 38 36 34 32 29 27 25 22 20 17 17 19 20 22 23 22 22 22 22 21 18 14 11 10 8 7 6 5 4 2 1 1 1 1
30 34 41 45 48 50 50 49 46 43 40 36 33 32 30 28 27 25 21 18 17 17 19 22 23 24 25 23 20 19 17 15 13 11 11 9 7 5 3 3 2 2 2
32 35 40 44 45 46 47 47 46 45 43 39 35 34 32 31 30 28 24 20 17 17 18 21 22 23 23 20 18 18 20 18 15 13 12 11 8 6 4 3 3 3 4
35 38 41 42 41 41 41 41 41 43 44 44 40 38 38 38 37 35 30 25 21 21 21 21 21 21 20 17 15 16 18 18 16 13 11 10 9 7 5 4 3 3 3
36 38 39 38 37 37 36 36 37 38 42 44 43 44 44 44 43 42 37 30 27 27 27 26 25 22 19 16 13 13 14 15 14 11 9 8 8 7 6 4 3 2 2
33 34 34 33 32 34 36 37 38 38 39 39 40 43 46 46 45 43 39 34 32 32 31 30 28 24 18 14 10 10 12 12 10 9 8 6 4 5 5 4 3 3 2
30 30 31 30 31 34 38 39 39 38 37 34 34 38 43 45 44 43 41 39 36 33 31 31 30 26 20 13 8 9 11 11 9 7 6 4 2 2 3 3 3 3 3
28 28 29 30 31 33 36 37 36 34 32 30 30 33 36 38 40 41 42 43 40 35 30 31 32 29 22 14 7 7 10 11 10 8 7 5 2 1 1 1 2 2 2
26 25 26 27 30 31 34 34 31 28 25 26 27 28 29 31 33 35 39 42 41 35 31 30 30 28 23 14 6 4 7 10 9 8 8 6 2 1 0 0 1 1 1
23 21 20 22 24 27 30 30 26 22 20 21 23 23 25 26 27 30 34 39 38 35 32 30 27 25 23 15 5 2 4 7 7 6 7 5 2 0 0 0 0 0 0
22 19 17 17 20 22 25 25 21 17 16 17 19 21 23 23 23 27 32 35 35 33 32 30 27 24 22 16 7 2 1 3 4 4 5 4 1 0 0 0 0 0 1
21 20 18 18 18 19 20 19 17 15 15 16 18 21 22 21 21 24 28 30 31 30 29 28 25 23 22 20 14 8 3 2 2 3 3 2 0 0 0 0 0 1 2
19 18 18 18 18 18 17 17 17 16 17 18 19 20 20 19 19 19 21 23 24 23 22 21 20 21 22 20 18 12 7 4 3 3 2 1 1 1 1 2 2 2 3
17 16 16 16 17 18 17 17 18 18 19 19 19 19 18 18 18 17 16 17 18 16 15 14 15 18 19 17 15 11 7 6 5 4 3 2 2 2 2 3 3 3 3
Wind_Speed
11 12 13 13 12 10 10 10 9 8 6 4 3 3 3 2 2 4 6 6 6 6 5 4 3 3 3 3 3 2 2 2 1 0 2 3 3 3 4 4 3 5 6
10 12 12 13 13 12 11 10 10 9 8 5 4 3 3 3 3 3 4 6 6 6 6 5 4 4 3 3 3 2 1 1 1 2 0 3 4 3 2 2 3 3 2
17 15 14 13 13 13 13 12 11 9 8 7 3 2 1 0 1 2 3 4 6 6 5 5 4 4 4 3 3 3 3 2 2 2 3 1 2 3 3 2 1 1 2
14 14 15 15 15 14 13 11 11 9 8 7 6 6 5 4 4 3 3 3 4 5 5 5 5 4 4 4 4 4 3 3 2 1 2 2 3 1 3 3 2 1 2
15 16 16 16 14 13 12 11 10 9 8 8 8 6 5 4 3 2 3 3 3 4 5 5 5 4 4 4 4 3 3 3 3 2 1 1 1 2 2 3 3 2 2
15 14 13 12 10 11 10 10 10 9 9 9 8 8 7 5 4 4 4 3 2 3 4 4 4 5 4 4 4 4 4 3 3 3 2 2 2 2 2 3 3 3 3
13 11 10 10 11 12 12 11 11 9 9 9 8 8 7 6 7 5 5 4 3 3 4 4 4 4 4 4 4 3 3 3 3 3 3 3 3 2 2 2 2 2 2
10 11 12 11 11 12 12 11 11 9 9 8 8 6 6 5 4 5 5 5 4 4 4 4 4 5 5 5 4 3 3 3 3 3 3 2 2 2 2 3 2 1 2
11 11 11 11 11 12 12 12 11 9 8 8 7 6 6 5 5 5 5 4 4 4 4 4 5 5 5 4 4 3 4 3 3 3 2 2 2 2 2 2 3 3 1
7 9 10 11 11 11 10 10 10 9 8 8 7 7 6 6 5 4 5 5 5 4 4 5 5 5 4 4 4 3 3 4 3 3 3 2 1 1 1 1 2 2 3
6 8 9 9 9 8 9 9 9 8 7 7 7 6 6 6 5 5 5 5 4 5 5 5 5 5 5 4 4 4 4 4 3 3 3 2 2 1 1 1 1 1 2
7 7 8 7 8 8 8 8 9 8 9 8 7 7 6 6 6 6 6 5 5 5 5 5 5 5 5 5 5 5 5 5 4 4 3 3 2 2 1 1 1 1 2
6 6 6 7 8 8 8 7 8 8 7 7 7 6 6 6 7 6 5 4 4 4 3 4 5 5 5 5 5 5 5 5 5 4 4 3 3 2 1 1 1 1 1
6 7 6 6 6 6 6 7 6 6 6 6 7 7 7 7 7 6 5 5 4 4 4 4 4 4 4 5 5 5 5 4 4 4 4 4 4 4 3 1 1 1 1
7 5 4 5 5 5 4 4 5 5 6 6 6 7 6 6 5 5 5 4 4 5 4 4 4 4 4 4 4 4 5 5 4 3 3 3 4 4 3 2 2 2 1
6 5 5 5 5 4 4 3 3 4 4 6 6 6 5 5 5 5 5 4 4 4 4 4 5 5 4 5 7 6 5 5 5 4 3 2 2 3 3 3 3 4 3
5 6 5 5 4 4 4 4 4 3 4 4 4 4 4 4 5 5 4 4 4 4 4 4 4 4 4 6 7 8 5 5 5 5 4 3 2 3 2 2 2 1 2
4 4 4 4 3 2 2 3 3 4 4 3 3 3 3 4 4 4 5 5 4 4 4 4 4 4 4 5 6 7 5 4 5 5 5 4 3 3 4 3 1 1 1
4 4 4 4 3 2 2 3 2 2 3 4 4 4 5 4 4 5 6 5 5 4 4 3 4 4 4 5 6 6 4 4 4 4 5 5 4 5 5 4 2 1 1
4 4 3 4 2 1 1 3 2 2 3 4 4 4 4 4 5 6 5 4 4 4 3 4 4 4 4 5 6 7 4 4 3 3 3 5 6 6 7 5 4 3 2
4 4 4 3 1 1 2 2 1 2 3 3 3 3 3 3 3 3 3 2 2 3 3 4 4 5 5 5 7 8 5 5 4 4 3 3 6 6 7 6 4 5 4
3 3 3 1 0 2 3 2 2 2 2 2 2 2 2 2 2 2 3 2 3 3 4 4 4 4 4 5 5 7 6 5 4 4 3 3 6 6 6 5 4 4 3
1 2 3 1 0 1 2 2 2 2 1 1 2 2 2 2 2 3 4 3 3 4 4 4 5 4 3 4 5 7 7 7 5 4 5 5 6 6 5 5 5 4 2
1 1 2 1 1 1 1 2 2 2 1 1 2 2 2 2 2 2 3 3 3 4 4 4 4 4 3 4 4 4 4 5 4 3 3 5 5 4 3 3 3 3 3
1 2 2 1 2 2 2 2 1 1 1 1 2 2 2 2 2 2 3 3 4 5 5 5 5 5 5 6 7 6 5 5 5 4 2 1 2 2 2 2 2 2 2
1 1 1 1 2 2 2 2 2 2 2 2 2 2 2 2 2 2 2 2 3 4 5 6 6 5 6 7 7 8 7 7 8 6 4 4 4 4 4 4 3 3 3
Wind_Direction
181 175 173 171 168 169 170 171 171 178 171 168 169 176 200 206 201 205 203 198 197 195 187 193 190 188 194 211 210 200 215 238 216 1 318 308 280 251 238 232 229 225 220
176 178 176 173 174 175 176 175 176 178 180 181 177 179 184 202 205 208 204 199 194 193 194 189 191 190 192 213 212 197 193 242 180 152 59 327 332 318 270 245 230 238 229
181 181 181 181 178 180 181 182 183 182 184 179 162 160 140 175 197 215 212 211 199 196 200 194 191 193 187 202 209 196 190 219 238 182 161 173 255 301 312 297 255 236 232
186 183 183 184 185 187 184 181 181 182 182 175 170 172 181 195 207 202 206 211 202 198 203 198 192 192 190 198 210 197 190 184 218 242 212 192 183 205 309 320 316 272 242
187 188 187 186 187 185 182 181 179 183 182 180 181 183 193 201 201 193 200 207 207 204 204 198 195 195 196 199 202 190 190 186 191 197 206 221 214 196 202 282 308 313 272
188 189 186 178 179 178 177 177 180 186 184 183 185 188 193 193 188 199 199 201 205 216 215 201 198 198 196 196 195 191 192 198 194 191 189 188 196 210 198 233 269 284 285
187 182 177 175 178 180 178 176 179 186 187 187 190 192 193 189 192 197 198 192 199 212 222 211 203 203 202 197 190 189 197 196 197 202 206 205 210 201 186 196 239 266 285
183 182 182 180 179 181 180 177 179 181 181 186 191 189 187 189 195 195 192 197 206 213 214 210 208 208 200 197 191 197 207 200 206 213 207 211 222 204 188 187 187 253 298
180 181 176 175 177 182 182 178 176 177 181 185 183 184 188 190 195 196 195 202 211 214 211 207 204 206 202 197 187 200 206 199 207 215 214 215 223 206 202 189 176 173 222
173 175 172 174 176 180 177 168 169 176 178 180 183 188 191 193 192 192 204 211 216 219 205 203 201 201 198 196 188 196 203 197 207 202 197 206 220 216 202 193 189 174 176
158 172 175 177 170 163 164 165 171 173 177 185 186 189 190 191 192 199 210 216 220 215 211 206 200 199 199 195 190 198 187 185 197 199 190 205 195 195 205 181 174 178 163
148 152 157 150 150 156 164 172 175 174 184 186 187 193 194 189 196 205 211 211 218 216 207 201 198 201 200 197 193 201 193 186 189 193 187 202 192 190 200 186 194 196 177
132 134 139 147 155 161 164 173 176 181 182 180 184 194 197 199 205 209 207 204 209 212 205 200 203 204 200 200 201 197 192 189 191 191 192 202 186 198 208 198 202 219 188
122 132 146 154 158 159 159 169 172 174 174 173 184 195 203 208 209 206 201 204 202 199 197 204 206 203 201 200 200 194 189 187 190 189 191 195 189 192 195 198 210 203 159
99 119 140 143 143 140 144 158 167 172 174 177 188 201 206 207 203 200 202 201 201 205 201 198 202 204 202 206 197 192 188 181 183 186 190 193 187 182 183 186 186 169 164
110 110 117 125 131 144 153 164 169 174 176 186 198 200 197 198 199 202 200 199 206 208 195 199 203 209 219 217 200 190 188 182 181 187 193 192 179 173 171 175 171 165 168
121 127 128 141 149 161 166 176 182 180 176 187 197 198 195 200 208 206 201 207 212 207 206 210 206 210 224 216 203 196 182 183 184 183 182 188 175 162 173 183 176 198 185
127 127 133 140 147 152 160 175 167 173 173 174 194 201 196 203 208 204 206 211 211 212 214 214 210 209 223 209 198 193 187 184 184 184 185 179 182 189 178 170 172 219 243
135 136 136 136 133 132 150 139 142 162 169 186 201 210 204 204 206 208 211 208 205 213 210 204 207 209 225 209 196 186 184 186 191 189 186 182 187 194 173 159 174 204 290
118 112 105 94 91 83 111 111 136 172 203 215 218 219 212 211 216 219 219 212 201 204 199 208 212 210 221 209 193 183 185 188 190 188 188 188 191 186 176 175 174 190 221
121 114 105 105 135 136 111 114 152 219 232 226 225 221 220 221 215 219 219 207 206 197 197 206 209 215 220 208 188 178 187 189 186 192 201 203 193 191 183 180 188 200 192
112 115 111 105 132 128 128 147 221 241 245 233 229 233 228 232 227 209 220 199 187 201 208 209 209 214 216 211 195 181 187 182 188 201 202 201 192 192 187 187 192 179 158
109 114 118 110 38 149 142 181 240 241 229 240 246 249 248 238 220 205 211 209 201 207 214 210 213 217 211 207 191 184 189 187 191 204 197 195 193 188 188 189 178 164 159
131 121 111 118 261 256 222 219 239 235 211 245 265 258 240 241 236 224 217 211 211 216 219 214 215 217 213 208 201 197 199 200 193 193 183 176 174 179 187 189 194 189 186
163 142 148 193 256 248 248 257 241 208 249 258 257 259 252 238 238 243 238 228 228 217 213 217 212 208 217 218 200 188 194 197 193 169 153 158 171 187 202 207 209 202 192
183 150 166 219 260 268 265 253 233 202 212 250 259 255 257 256 238 239 274 292 248 232 224 222 217 221 215 197 194 198 196 185 169 156 176 195 198 200 201 201 206 206 207